Location: Burbank
(38.7788°N, 114.0429°W)
Time: 20:08:39
(UTC+00:00)

Vanguard 2 Rocket - Pass Details

Date: 22 May 2026
Orbit: 553 x 3286 km, 32.9° (Epoch: 6 June)

Event Time Altitude Azimuth Distance (km) Brightness Sun altitude
Rises 18:39:37 0° 263° (W) 4,736 10.5 68.4°
Reaches altitude 10° 18:42:14 10° 261° (W) 4,043 10.2 68.7°
Maximum altitude 18:53:51 70° 181° (S) 2,619 11.7 69.9°
Drops below altitude 10° 19:12:32 10° 103° (ESE) 6,154 11.4 71.2°
Sets 19:17:36 0° 101° (ESE) 7,254 11.6 71.4°
